Hourly Weather Abuzere

Today, 24 September, Thursday

Time Temperature Precipitation Wind Pressure Humidity
00:00 +12°C° 0 mm 3 mps 744 mmHg 68%
01:00 +11°C° 0 mm 3 mps 745 mmHg 68%
02:00 +11°C° 0 mm 3 mps 745 mmHg 68%
03:00 +11°C° 0 mm 3 mps 745 mmHg 67%
04:00 +10°C° 0 mm 3 mps 744 mmHg 67%
05:00 +10°C° 0 mm 3 mps 744 mmHg 66%
06:00 +10°C° 0 mm 3 mps 744 mmHg 64%
07:00 +11°C° 0 mm 3 mps 744 mmHg 62%
08:00 +12°C° 0 mm 4 mps 744 mmHg 59%
09:00 +14°C° 0 mm 4 mps 745 mmHg 56%
10:00 +15°C° 0 mm 4 mps 745 mmHg 53%
11:00 +18°C° 0 mm 4 mps 745 mmHg 50%
12:00 +19°C° 0 mm 4 mps 745 mmHg 48%
13:00 +20°C° 0 mm 4 mps 745 mmHg 47%
14:00 +21°C° 0 mm 4 mps 745 mmHg 49%
15:00 +20°C° 0 mm 3 mps 744 mmHg 55%
16:00 +19°C° 0 mm 3 mps 744 mmHg 60%
17:00 +18°C° 0 mm 3 mps 744 mmHg 66%
18:00 +17°C° 0 mm 3 mps 744 mmHg 68%
19:00 +16°C° 0 mm 3 mps 744 mmHg 71%
20:00 +14°C° 0 mm 3 mps 744 mmHg 73%
21:00 +13°C° 0 mm 3 mps 744 mmHg 72%
22:00 +13°C° 0 mm 3 mps 744 mmHg 71%
23:00 +13°C° 0 mm 3 mps 744 mmHg 70%

Tomorrow, 25 September, Friday

Time Temperature Precipitation Wind Pressure Humidity
00:00 +12°C° 0 mm 3 mps 744 mmHg 70%
01:00 +12°C° 0 mm 3 mps 744 mmHg 71%
02:00 +11°C° 0 mm 3 mps 744 mmHg 71%
03:00 +11°C° 0 mm 3 mps 744 mmHg 71%
04:00 +11°C° 0 mm 3 mps 744 mmHg 70%
05:00 +11°C° 0 mm 3 mps 744 mmHg 70%
06:00 +11°C° 0 mm 3 mps 744 mmHg 68%
07:00 +12°C° 0 mm 3 mps 743 mmHg 66%
08:00 +13°C° 0 mm 4 mps 743 mmHg 65%
09:00 +15°C° 0 mm 4 mps 743 mmHg 62%
10:00 +17°C° 0 mm 4 mps 743 mmHg 59%
11:00 +19°C° 0 mm 4 mps 743 mmHg 57%
12:00 +20°C° 0 mm 4 mps 743 mmHg 56%
13:00 +20°C° 0 mm 4 mps 743 mmHg 56%
14:00 +21°C° 0 mm 5 mps 743 mmHg 56%
15:00 +20°C° 0 mm 4 mps 742 mmHg 61%
16:00 +19°C° 0 mm 4 mps 742 mmHg 66%
17:00 +18°C° 0 mm 4 mps 742 mmHg 71%
18:00 +17°C° 0 mm 4 mps 742 mmHg 72%
19:00 +15°C° 0 mm 4 mps 742 mmHg 74%
20:00 +15°C° 0 mm 4 mps 742 mmHg 76%
21:00 +14°C° 0 mm 4 mps 742 mmHg 76%
22:00 +14°C° 0 mm 4 mps 742 mmHg 76%
23:00 +14°C° 0 mm 4 mps 742 mmHg 76%

Day after tomorrow, 26 September, Saturday

Time Temperature Precipitation Wind Pressure Humidity
00:00 +14°C° 0 mm 4 mps 742 mmHg 75%
01:00 +14°C° 0 mm 4 mps 741 mmHg 73%
02:00 +14°C° 0 mm 5 mps 741 mmHg 72%
03:00 +14°C° 0 mm 5 mps 741 mmHg 70%
04:00 +13°C° 0 mm 5 mps 741 mmHg 68%
05:00 +13°C° 0 mm 5 mps 741 mmHg 67%
06:00 +13°C° 0 mm 5 mps 741 mmHg 66%
07:00 +14°C° 0 mm 5 mps 741 mmHg 65%
08:00 +14°C° 0 mm 6 mps 741 mmHg 65%
09:00 +16°C° 0 mm 6 mps 742 mmHg 64%
10:00 +19°C° 0 mm 6 mps 742 mmHg 62%
11:00 +20°C° 0 mm 6 mps 742 mmHg 61%
12:00 +21°C° 0 mm 6 mps 742 mmHg 59%
13:00 +22°C° 0 mm 6 mps 742 mmHg 56%
14:00 +23°C° 0 mm 6 mps 742 mmHg 54%
15:00 +22°C° 0 mm 6 mps 742 mmHg 58%
16:00 +21°C° 0 mm 6 mps 742 mmHg 63%
17:00 +20°C° 0 mm 5 mps 742 mmHg 67%
18:00 +19°C° 0 mm 5 mps 742 mmHg 67%
19:00 +17°C° 0 mm 5 mps 742 mmHg 68%
20:00 +16°C° 0 mm 5 mps 742 mmHg 68%
21:00 +16°C° 0 mm 5 mps 742 mmHg 67%
22:00 +16°C° 0 mm 5 mps 743 mmHg 66%
23:00 +16°C° 0 mm 5 mps 743 mmHg 65%

27 September, Sunday

Time Temperature Precipitation Wind Pressure Humidity
00:00 +15°C° 0 mm 5 mps 743 mmHg 63%
01:00 +15°C° 0 mm 5 mps 743 mmHg 62%
02:00 +14°C° 0 mm 5 mps 743 mmHg 61%
03:00 +14°C° 0 mm 5 mps 742 mmHg 61%
04:00 +13°C° 0 mm 5 mps 742 mmHg 60%
05:00 +13°C° 0 mm 6 mps 742 mmHg 60%
06:00 +13°C° 0 mm 6 mps 742 mmHg 61%
07:00 +14°C° 0 mm 6 mps 742 mmHg 61%
08:00 +14°C° 0 mm 6 mps 742 mmHg 62%
09:00 +15°C° 0 mm 7 mps 742 mmHg 60%
10:00 +16°C° 0 mm 7 mps 742 mmHg 59%
11:00 +18°C° 0 mm 8 mps 742 mmHg 58%
12:00 +18°C° 0 mm 8 mps 742 mmHg 57%
13:00 +18°C° 0 mm 8 mps 742 mmHg 56%
14:00 +18°C° 0 mm 8 mps 742 mmHg 55%
15:00 +18°C° 0.1 mm 7 mps 742 mmHg 57%
16:00 +17°C° 0.1 mm 7 mps 742 mmHg 59%
17:00 +16°C° 0.1 mm 7 mps 742 mmHg 61%
18:00 +15°C° 0.2 mm 7 mps 742 mmHg 66%
19:00 +15°C° 0.2 mm 7 mps 742 mmHg 71%
20:00 +14°C° 0.2 mm 7 mps 742 mmHg 75%
21:00 +14°C° 0.1 mm 6 mps 743 mmHg 78%
22:00 +14°C° 0.1 mm 6 mps 744 mmHg 81%
23:00 +13°C° 0.1 mm 5 mps 744 mmHg 84%

28 September, Monday

Time Temperature Precipitation Wind Pressure Humidity
00:00 +12°C° 0 mm 4 mps 745 mmHg 87%
01:00 +10°C° 0 mm 3 mps 745 mmHg 90%
02:00 +9°C° 0 mm 2 mps 745 mmHg 92%
03:00 +8°C° 0 mm 2 mps 746 mmHg 93%
04:00 +9°C° 0 mm 1 mps 746 mmHg 94%
05:00 +8°C° 0 mm 1 mps 746 mmHg 95%
06:00 +9°C° 0 mm 1 mps 747 mmHg 91%
07:00 +10°C° 0 mm 1 mps 747 mmHg 88%
08:00 +11°C° 0 mm 1 mps 747 mmHg 84%
09:00 +13°C° 0 mm 1 mps 748 mmHg 76%
10:00 +14°C° 0 mm 1 mps 748 mmHg 67%
11:00 +16°C° 0 mm 1 mps 748 mmHg 59%
12:00 +16°C° 0 mm 0 mps 748 mmHg 56%
13:00 +16°C° 0 mm 0 mps 748 mmHg 54%
14:00 +17°C° 0 mm 0 mps 748 mmHg 51%
15:00 +18°C° 0 mm 1 mps 748 mmHg 56%
16:00 +16°C° 0 mm 1 mps 748 mmHg 61%
17:00 +15°C° 0 mm 1 mps 748 mmHg 66%
18:00 +14°C° 0 mm 2 mps 748 mmHg 68%
19:00 +13°C° 0 mm 2 mps 748 mmHg 71%
20:00 +12°C° 0 mm 2 mps 748 mmHg 73%
21:00 +12°C° 0 mm 2 mps 748 mmHg 76%
22:00 +12°C° 0 mm 2 mps 747 mmHg 79%
23:00 +10°C° 0 mm 2 mps 747 mmHg 81%

29 September, Tuesday

Time Temperature Precipitation Wind Pressure Humidity
00:00 +11°C° 0 mm 3 mps 747 mmHg 82%
01:00 +11°C° 0 mm 3 mps 747 mmHg 84%
02:00 +12°C° 0 mm 3 mps 746 mmHg 85%
03:00 +12°C° 0 mm 3 mps 746 mmHg 85%
04:00 +12°C° 0 mm 3 mps 746 mmHg 85%
05:00 +12°C° 0 mm 3 mps 746 mmHg 86%
06:00 +12°C° 0 mm 3 mps 745 mmHg 85%
07:00 +13°C° 0 mm 4 mps 745 mmHg 85%
08:00 +13°C° 0 mm 4 mps 745 mmHg 84%
09:00 +14°C° 0.1 mm 3 mps 745 mmHg 83%
10:00 +14°C° 0.1 mm 3 mps 745 mmHg 81%
11:00 +16°C° 0.1 mm 3 mps 744 mmHg 80%
12:00 +17°C° 0 mm 3 mps 744 mmHg 77%
13:00 +18°C° 0 mm 3 mps 744 mmHg 74%
14:00 +18°C° 0 mm 4 mps 744 mmHg 71%
15:00 +18°C° 0 mm 4 mps 743 mmHg 74%
16:00 +17°C° 0 mm 4 mps 743 mmHg 76%
17:00 +17°C° 0 mm 4 mps 742 mmHg 78%
18:00 +16°C° 0 mm 5 mps 742 mmHg 79%
19:00 +15°C° 0 mm 5 mps 742 mmHg 80%
20:00 +15°C° 0 mm 5 mps 742 mmHg 81%
21:00 +14°C° 0 mm 5 mps 741 mmHg 81%
22:00 +14°C° 0 mm 5 mps 741 mmHg 81%
23:00 +13°C° 0 mm 5 mps 741 mmHg 81%
Show more